Temperature
20 20 20 20 20 20 20 20 19 19 19 19 19 19 19 19 19 19 19 19 19 19 19 19 19 19 18 18 18 18 18 18 18 18 18 18 18 18 18 18 18 18 18
21 20 20 20 20 20 20 20 19 19 19 19 19 19 19 19 19 19 19 19 19 19 19 19 19 19 18 18 18 18 18 18 18 18 18 18 18 18 18 18 18 18 18
21 20 20 20 20 20 20 19 19 19 19 19 19 19 19 19 19 19 19 19 19 19 19 19 19 19 19 18 18 18 18 18 18 18 18 18 18 18 18 18 18 18 18
21 20 20 20 20 20 20 20 19 19 19 19 19 19 19 19 19 19 19 19 19 19 19 19 19 19 19 18 18 18 18 18 18 18 18 18 18 18 18 18 18 18 18
21 20 20 20 20 20 20 20 20 19 19 19 19 19 19 19 19 19 19 19 19 19 19 19 18 18 18 18 18 18 18 18 18 18 18 18 18 18 18 18 18 18 18
21 20 20 20 20 20 20 20 20 19 19 19 19 19 19 19 19 19 19 19 19 19 19 19 18 18 18 18 18 18 18 18 18 18 18 18 18 18 18 18 18 18 18
21 20 20 20 20 20 20 20 19 19 19 19 19 19 19 19 19 19 19 19 19 19 19 19 18 18 18 18 18 18 18 18 18 18 18 18 18 18 18 18 18 18 18
21 20 20 20 20 20 20 20 20 19 19 19 19 19 19 19 19 19 19 19 19 19 19 19 18 18 18 18 18 18 18 18 18 18 18 18 18 18 18 18 18 18 18
21 20 20 20 20 20 20 20 20 19 19 19 19 19 19 19 19 19 19 19 19 18 18 18 18 18 18 18 18 18 18 18 18 18 18 18 18 18 18 18 18 18 18
20 20 20 20 20 20 20 20 19 19 19 19 19 19 19 19 19 19 19 19 18 18 18 18 18 18 18 18 18 18 18 18 18 18 18 18 18 18 18 18 18 18 18
20 20 20 20 20 20 19 19 19 19 19 19 19 19 19 19 19 19 19 19 18 18 18 18 18 18 18 18 18 18 18 18 18 18 18 18 18 18 18 18 18 18 18
20 20 20 20 20 19 19 19 19 19 19 19 19 19 19 19 19 19 19 19 18 18 18 18 18 18 18 18 18 18 18 18 18 18 18 18 18 18 18 18 18 18 17
20 20 20 20 20 19 19 19 19 19 19 19 19 19 19 19 19 19 19 19 19 18 18 18 18 18 18 18 18 18 18 18 18 18 18 18 18 18 18 18 18 17 17
20 20 20 20 20 19 19 19 19 19 19 19 19 19 19 19 19 19 19 19 19 18 18 18 18 18 18 18 18 18 18 18 18 18 18 18 18 18 18 18 18 17 17
20 20 20 20 20 20 19 19 19 19 19 19 19 19 19 19 19 19 19 19 18 18 18 18 18 18 18 18 18 18 18 18 18 18 18 18 18 18 18 18 18 18 18
21 20 20 20 20 20 19 19 19 19 19 19 19 19 19 19 19 19 19 19 18 18 18 18 18 18 18 18 18 18 18 18 18 18 18 18 18 18 18 18 18 18 18
21 20 20 20 20 19 19 19 19 19 19 19 19 19 19 19 19 19 19 19 18 18 18 18 18 19 18 18 18 18 18 18 18 18 18 18 18 18 18 17 17 17 17
21 20 20 20 20 19 19 19 19 19 19 19 19 19 19 19 19 19 19 19 19 19 19 19 19 19 18 18 18 18 18 18 18 18 18 18 18 18 18 17 17 17 17
21 21 20 20 20 19 19 19 19 19 19 19 19 19 19 19 19 19 19 19 19 18 19 19 19 19 18 18 18 18 18 18 18 18 18 18 18 18 18 18 17 17 17
21 21 20 20 20 19 19 19 19 19 19 19 19 19 18 18 18 18 18 18 18 19 19 18 19 19 18 18 18 18 18 18 18 18 18 18 18 18 18 18 17 17 17
21 21 20 20 20 19 19 19 19 19 19 18 18 18 18 18 18 19 18 18 18 18 18 18 18 18 18 18 18 18 18 18 18 18 18 18 18 17 18 18 18 17 17
21 20 20 20 20 19 19 19 19 19 18 18 18 18 18 18 18 18 18 18 18 18 18 18 18 18 18 18 18 18 17 18 18 18 17 18 18 18 17 18 18 18 17
21 20 20 20 20 19 19 19 19 19 18 18 18 18 18 18 18 18 18 18 18 18 18 18 18 18 18 17 17 17 17 17 17 17 17 17 18 18 18 17 17 17 17
21 21 20 20 20 20 19 19 19 19 18 18 18 18 18 18 18 18 18 18 18 18 18 17 17 17 17 17 17 17 17 17 17 17 17 17 17 17 18 17 17 17 18
21 21 20 20 20 20 19 19 19 19 19 18 18 18 18 18 18 18 18 18 18 18 17 17 17 17 17 17 17 17 17 17 17 17 17 17 17 17 17 17 17 17 17
21 21 21 20 20 20 19 19 19 19 19 18 18 18 18 18 18 18 18 18 17 17 17 17 17 17 17 17 17 17 17 16 16 16 16 17 17 17 17 17 17 17 17
Wind_Speed
3 4 7 8 9 9 10 10 10 10 11 11 11 11 11 10 11 10 10 9 10 10 10 10 10 10 10 10 11 11 12 12 13 13 12 12 11 11 11 10 10 9 11
7 6 8 9 10 10 10 10 10 10 11 11 11 11 10 10 10 10 9 9 9 9 10 9 9 10 10 10 10 11 11 11 12 12 12 12 11 11 11 10 9 8 11
8 7 9 10 10 10 10 10 10 10 10 11 11 10 10 10 9 9 9 8 8 9 9 9 9 9 9 9 10 10 10 11 11 12 12 9 9 11 11 11 10 10 10
8 8 9 11 11 10 11 10 10 10 9 10 11 10 9 9 9 9 8 8 8 8 9 9 8 7 8 9 9 10 9 10 10 11 9 8 9 10 11 11 11 10 11
7 8 10 12 11 10 11 10 10 10 9 11 11 10 10 9 9 9 8 7 7 8 8 7 7 6 6 7 9 9 9 9 10 9 8 9 9 11 12 12 11 11 11
7 8 10 12 11 11 10 10 10 10 10 11 11 10 9 9 9 8 7 7 7 7 6 6 6 5 5 6 8 8 9 9 8 6 8 9 9 11 13 13 13 12 12
7 7 10 12 11 11 10 10 10 10 10 10 10 9 8 8 8 7 6 6 6 6 5 5 5 5 5 6 6 7 8 9 7 7 8 9 10 13 14 13 13 13 13
9 7 9 10 11 10 10 9 9 9 9 9 9 8 8 8 8 7 6 6 6 5 5 4 4 4 5 6 6 6 7 7 6 6 7 8 12 13 14 14 14 14 14
7 6 5 7 8 8 8 8 9 9 8 8 8 7 7 6 7 6 5 5 5 4 4 4 4 4 5 6 6 6 6 7 5 5 7 7 11 13 14 14 14 14 14
6 5 4 5 5 5 6 7 7 8 8 7 7 6 5 5 5 4 4 4 4 4 3 3 4 5 5 5 5 6 6 6 5 6 6 8 12 14 15 15 15 15 14
6 4 4 4 4 4 5 6 6 6 6 6 5 5 3 2 2 3 3 3 3 3 3 3 4 5 4 5 5 5 6 5 5 5 6 9 12 13 15 15 15 14 14
6 5 4 4 4 4 4 4 3 4 3 3 3 2 2 2 3 3 3 3 2 2 3 3 3 4 4 3 4 4 4 6 6 6 8 11 12 13 13 14 15 14 14
6 5 4 3 3 3 2 3 3 2 2 2 2 2 2 2 1 1 1 2 2 2 2 2 3 3 3 3 3 3 4 5 5 6 8 12 13 13 13 13 13 14 14
6 5 4 3 3 3 3 2 3 2 2 2 2 3 2 1 1 1 1 1 1 1 1 2 1 2 2 3 3 3 5 5 5 5 8 12 13 13 14 13 13 13 13
6 5 4 4 4 3 3 2 3 2 2 2 2 3 3 2 1 1 0 0 1 1 1 0 1 1 1 2 2 3 3 4 6 6 7 11 13 14 14 14 14 13 13
6 5 4 4 4 4 3 3 3 2 2 2 2 2 3 2 2 1 0 0 0 1 1 0 1 1 1 0 1 2 3 4 4 6 6 9 12 13 14 15 15 14 14
7 5 5 4 3 4 3 3 3 2 3 2 1 1 2 2 2 2 1 1 0 1 1 1 1 1 1 0 1 2 2 3 4 5 6 6 8 11 13 14 14 15 15
7 6 5 5 3 3 3 3 2 2 3 2 1 1 2 2 2 2 1 0 0 0 1 1 1 1 1 1 1 1 1 2 3 5 5 6 6 7 10 12 13 15 15
8 6 5 4 3 3 3 3 3 2 2 1 1 1 1 2 2 2 1 0 0 1 1 1 1 1 1 1 1 1 0 1 2 4 4 5 5 6 6 9 12 13 14
8 7 5 4 4 3 3 3 2 2 1 1 1 1 2 1 2 1 1 1 1 2 2 2 1 1 1 1 1 1 1 0 1 2 3 3 4 6 6 6 7 10 13
7 7 6 5 3 3 2 2 2 1 0 1 1 1 1 1 2 2 2 2 2 2 1 1 1 2 2 1 2 2 3 2 0 1 2 2 3 5 6 7 6 6 8
7 7 6 5 4 3 2 2 2 2 1 1 0 1 1 1 1 2 2 1 1 2 2 2 2 1 1 2 1 1 2 3 2 1 1 2 3 3 4 6 6 7 6
7 7 7 5 4 3 2 2 2 2 2 2 1 1 1 1 1 1 1 1 1 1 1 1 1 2 1 2 1 2 1 2 2 2 1 1 1 2 3 3 6 7 8
8 7 6 6 5 3 3 3 3 2 1 1 1 0 1 1 2 2 1 1 1 1 1 1 1 1 1 1 1 0 1 2 1 2 3 1 2 2 3 3 4 6 8
8 7 6 5 5 4 4 4 4 2 1 0 0 1 1 2 1 2 2 2 2 1 1 1 1 1 1 1 0 1 1 1 1 1 2 3 2 2 2 3 3 4 6
6 6 6 5 4 3 4 4 4 3 2 1 1 0 0 1 1 2 1 1 1 1 1 1 1 1 1 1 1 1 1 0 1 1 1 2 3 3 2 2 2 2 5
Wind_Direction
172 172 147 128 120 116 113 113 116 118 119 120 120 122 123 125 129 131 133 139 146 154 155 156 158 158 158 160 161 161 160 157 155 155 154 153 156 157 158 158 153 151 147
160 155 139 126 120 118 118 118 119 119 122 124 123 122 124 126 129 131 133 139 147 154 158 159 162 162 164 164 163 163 163 162 161 161 159 158 162 164 164 164 159 153 151
143 145 136 127 122 121 121 118 118 118 121 126 126 125 123 123 126 129 132 137 146 152 155 156 163 165 166 167 168 167 168 168 168 168 165 162 165 166 166 165 161 157 158
140 143 136 129 123 121 121 118 116 117 121 130 130 127 123 122 122 121 124 130 137 143 147 149 154 163 171 176 177 175 174 175 175 176 171 170 170 173 172 168 166 164 165
133 140 139 131 126 126 124 120 117 113 112 125 126 125 123 123 124 123 123 125 131 138 143 150 155 165 176 186 186 183 181 183 185 183 177 173 173 179 177 173 172 170 169
138 143 144 135 128 126 127 123 122 119 117 118 122 125 126 125 125 127 129 132 134 136 140 148 160 169 180 186 186 188 189 192 192 177 171 176 179 184 184 182 181 177 173
141 144 147 141 135 130 129 127 124 121 119 119 121 126 130 134 137 140 141 140 141 142 146 156 169 178 181 181 184 189 195 195 183 174 174 182 187 187 189 186 185 180 178
143 145 149 147 142 140 136 136 132 130 128 127 127 128 134 143 146 148 149 147 150 150 150 164 176 188 192 193 200 203 200 191 181 179 180 188 189 190 191 188 186 184 182
137 140 150 154 152 149 146 143 139 137 137 136 134 134 135 140 150 155 159 155 158 160 167 179 187 201 206 208 210 210 205 198 181 175 188 196 196 192 191 188 190 189 187
131 141 148 157 155 157 159 154 147 145 145 143 140 142 144 142 144 148 162 171 176 182 191 200 203 213 214 213 214 208 197 193 185 186 190 198 199 199 197 195 194 194 192
123 134 144 148 156 172 175 162 155 148 150 147 147 151 150 155 169 178 176 176 183 193 207 212 216 221 224 226 226 216 204 189 184 188 189 201 201 200 199 198 196 197 196
131 142 149 143 155 156 155 151 160 149 144 143 144 155 169 174 198 197 196 196 214 228 234 229 236 246 251 242 239 227 201 187 189 193 196 199 203 201 198 197 198 198 196
145 141 140 135 142 147 143 141 145 147 145 151 160 166 165 169 197 204 199 248 264 272 270 264 261 262 237 221 221 207 195 188 192 199 200 201 203 201 200 199 200 198 196
135 143 144 138 128 136 134 144 139 137 140 151 176 169 153 145 145 141 170 219 244 259 259 252 251 245 230 229 212 190 187 192 194 198 202 203 203 202 202 202 202 200 199
131 138 145 134 131 128 115 132 129 138 149 155 148 161 157 145 138 111 118 157 254 255 251 274 260 249 240 235 201 181 194 199 191 192 200 203 204 203 203 205 204 205 203
132 136 137 129 127 118 115 113 110 121 123 110 119 138 142 140 129 120 111 84 310 277 264 246 274 291 288 250 211 192 196 196 192 187 197 206 207 207 208 211 207 206 203
142 138 135 130 115 113 112 113 115 119 110 110 113 121 119 121 122 122 114 98 302 289 294 335 350 13 20 355 238 217 195 193 187 184 193 202 210 212 212 214 213 210 208
138 141 141 134 125 122 118 112 117 112 109 121 114 102 101 110 115 114 98 57 272 69 62 47 22 17 10 5 300 255 200 186 182 186 190 196 206 214 217 217 217 214 212
145 144 140 131 132 132 118 110 108 101 100 116 120 109 108 113 114 119 92 348 34 70 60 43 43 48 24 349 303 309 275 175 186 191 182 190 203 214 216 221 221 218 215
150 145 140 132 133 129 110 95 85 75 57 81 111 101 103 100 102 100 75 31 49 64 51 44 40 23 34 315 342 9 6 154 167 188 197 196 202 212 214 216 220 222 221
152 147 146 137 138 130 126 138 143 161 269 9 53 93 101 104 99 98 67 48 49 67 54 43 53 31 17 28 50 10 354 344 328 199 207 199 211 213 205 206 212 217 221
159 158 154 150 151 151 159 167 162 156 173 182 45 79 99 93 81 92 80 61 56 64 43 42 58 58 15 44 90 63 354 342 334 269 210 207 223 218 215 210 208 214 218
166 165 159 156 150 148 123 91 77 60 42 34 34 34 36 91 83 80 89 98 68 90 71 39 49 85 41 349 70 121 139 249 300 315 271 240 236 223 230 216 211 217 218
167 161 154 152 146 139 124 118 123 126 147 223 223 135 27 46 60 61 70 87 79 74 66 20 59 62 105 347 318 319 176 173 167 302 321 298 258 246 237 229 217 212 212
158 158 155 148 150 153 151 151 143 140 167 190 74 65 31 12 25 49 66 67 65 59 58 36 36 33 88 137 285 291 314 9 100 161 286 313 314 273 248 232 218 216 213
154 153 152 148 152 155 155 158 157 159 155 139 139 141 323 330 357 13 62 64 68 61 45 28 39 48 48 69 63 75 121 135 245 184 229 284 291 286 268 242 228 231 218
Height
1507 1506 1506 1505 1504 1503 1502 1502 1502 1502 1503 1503 1504 1505 1505 1506 1506 1506 1505 1505 1505 1507 1509 1511 1514 1515 1517 1519 1520 1521 1523 1524 1526 1527 1528 1529 1531 1532 1533 1534 1536 1537 1538
1507 1507 1506 1505 1504 1503 1503 1502 1502 1503 1503 1504 1505 1505 1505 1506 1506 1504 1502 1502 1503 1505 1507 1510 1513 1515 1516 1518 1520 1521 1522 1524 1525 1527 1528 1529 1531 1532 1533 1534 1536 1537 1538
1508 1507 1507 1506 1505 1504 1504 1504 1504 1504 1504 1504 1505 1505 1506 1506 1505 1504 1503 1502 1502 1503 1506 1509 1512 1514 1516 1517 1519 1520 1522 1524 1525 1526 1528 1529 1530 1532 1533 1534 1535 1536 1537
1508 1508 1507 1507 1506 1505 1505 1505 1505 1504 1503 1502 1504 1505 1506 1506 1506 1505 1504 1502 1502 1503 1506 1509 1512 1514 1516 1517 1518 1520 1522 1523 1524 1526 1527 1528 1530 1531 1532 1533 1534 1536 1537
1509 1509 1508 1508 1507 1506 1506 1505 1505 1505 1501 1498 1504 1506 1507 1507 1507 1507 1506 1505 1504 1506 1508 1510 1512 1514 1515 1516 1517 1519 1521 1522 1524 1525 1526 1528 1529 1530 1531 1533 1534 1535 1536
1510 1509 1509 1509 1508 1508 1507 1507 1507 1506 1505 1504 1506 1507 1508 1508 1508 1508 1508 1507 1507 1508 1510 1511 1513 1514 1515 1516 1517 1519 1521 1522 1523 1524 1526 1527 1528 1529 1530 1532 1533 1534 1536
1510 1510 1510 1510 1510 1509 1509 1508 1508 1508 1508 1508 1508 1509 1509 1510 1510 1510 1510 1509 1510 1510 1511 1512 1513 1514 1515 1516 1517 1518 1520 1521 1522 1523 1525 1526 1527 1528 1529 1531 1532 1534 1535
1511 1511 1511 1511 1511 1511 1510 1510 1510 1510 1510 1510 1510 1510 1511 1511 1511 1511 1511 1511 1511 1512 1512 1513 1514 1514 1515 1516 1517 1518 1519 1520 1521 1523 1524 1525 1527 1528 1529 1530 1531 1533 1534
1513 1512 1512 1512 1512 1512 1511 1511 1511 1511 1511 1511 1512 1512 1512 1512 1512 1512 1512 1513 1513 1513 1513 1514 1514 1515 1515 1516 1517 1518 1519 1520 1521 1522 1523 1524 1526 1527 1528 1529 1530 1532 1533
1514 1513 1513 1513 1513 1513 1513 1512 1512 1512 1513 1513 1513 1513 1513 1513 1513 1513 1514 1514 1514 1514 1514 1514 1514 1515 1515 1516 1517 1518 1518 1519 1520 1521 1522 1523 1525 1526 1527 1528 1529 1531 1532
1514 1514 1514 1514 1514 1514 1514 1514 1514 1514 1514 1514 1514 1514 1514 1514 1514 1514 1514 1515 1514 1514 1514 1514 1515 1515 1515 1516 1516 1517 1518 1519 1520 1520 1521 1522 1523 1524 1525 1526 1528 1529 1530
1514 1514 1515 1515 1514 1514 1514 1514 1515 1515 1515 1515 1515 1515 1515 1515 1515 1515 1515 1515 1515 1515 1514 1514 1515 1515 1515 1516 1516 1516 1517 1517 1518 1519 1520 1521 1522 1522 1524 1525 1526 1527 1529
1514 1515 1515 1515 1515 1515 1515 1515 1515 1515 1516 1516 1516 1515 1515 1515 1515 1515 1515 1515 1515 1514 1514 1514 1515 1514 1515 1515 1515 1515 1515 1516 1516 1517 1518 1519 1520 1521 1522 1523 1525 1526 1527
1515 1515 1515 1516 1515 1515 1516 1516 1516 1516 1516 1516 1516 1516 1516 1516 1515 1515 1515 1515 1515 1514 1514 1514 1514 1514 1515 1514 1514 1514 1514 1514 1515 1516 1516 1517 1518 1519 1520 1522 1523 1524 1525
1515 1515 1516 1516 1516 1516 1516 1516 1516 1516 1517 1517 1517 1516 1516 1516 1516 1515 1515 1515 1514 1514 1514 1514 1513 1513 1514 1514 1514 1513 1513 1513 1513 1514 1514 1515 1516 1517 1518 1520 1521 1522 1523
1515 1516 1516 1516 1516 1516 1517 1517 1517 1517 1517 1517 1517 1517 1516 1516 1516 1515 1515 1515 1514 1514 1514 1513 1513 1513 1513 1513 1513 1512 1512 1512 1512 1512 1513 1514 1515 1516 1517 1518 1519 1520 1521
1515 1515 1516 1516 1517 1517 1517 1517 1518 1518 1518 1517 1517 1517 1517 1516 1516 1515 1515 1514 1514 1514 1514 1513 1513 1513 1512 1512 1512 1511 1511 1511 1510 1511 1511 1512 1513 1514 1515 1516 1517 1518 1519
1514 1515 1515 1516 1517 1517 1517 1517 1518 1518 1518 1518 1517 1517 1517 1516 1516 1516 1515 1514 1514 1514 1513 1513 1512 1512 1512 1511 1511 1510 1510 1509 1509 1510 1511 1511 1512 1513 1513 1514 1515 1516 1517
1514 1514 1515 1516 1517 1517 1517 1518 1518 1518 1518 1518 1518 1517 1517 1517 1516 1516 1515 1515 1514 1514 1513 1513 1512 1512 1511 1511 1510 1510 1509 1509 1509 1509 1510 1510 1511 1511 1512 1512 1513 1514 1515
1514 1514 1515 1516 1517 1517 1517 1518 1518 1518 1518 1518 1518 1518 1517 1517 1517 1516 1515 1515 1514 1513 1513 1512 1512 1511 1511 1510 1510 1509 1509 1508 1508 1508 1509 1509 1510 1510 1511 1511 1512 1512 1512
1514 1514 1514 1515 1516 1517 1517 1517 1518 1518 1518 1518 1518 1518 1517 1517 1517 1516 1515 1514 1514 1513 1513 1512 1511 1511 1510 1510 1509 1509 1509 1508 1508 1508 1508 1508 1508 1509 1509 1510 1510 1510 1510
1513 1514 1514 1515 1516 1516 1517 1517 1518 1518 1518 1518 1518 1518 1517 1517 1516 1516 1515 1514 1514 1513 1513 1512 1511 1510 1510 1510 1509 1508 1508 1509 1508 1508 1508 1508 1508 1508 1508 1508 1508 1508 1508
1513 1513 1514 1515 1516 1516 1517 1518 1518 1518 1518 1518 1517 1517 1517 1517 1516 1515 1515 1514 1514 1513 1512 1512 1511 1510 1510 1510 1509 1509 1508 1507 1507 1507 1507 1507 1507 1507 1507 1506 1507 1507 1507
1512 1513 1514 1515 1515 1516 1516 1517 1517 1517 1517 1517 1517 1517 1517 1516 1516 1515 1515 1514 1513 1513 1512 1511 1511 1510 1509 1509 1509 1509 1509 1508 1507 1506 1506 1506 1506 1506 1505 1505 1505 1505 1505
1511 1512 1513 1514 1515 1516 1516 1517 1517 1517 1517 1517 1517 1517 1516 1516 1515 1515 1514 1513 1513 1512 1511 1511 1510 1509 1509 1508 1508 1508 1507 1507 1507 1506 1504 1504 1504 1504 1504 1504 1503 1503 1503
1511 1512 1513 1514 1514 1515 1515 1516 1516 1516 1516 1516 1517 1516 1516 1515 1515 1514 1514 1513 1512 1511 1510 1510 1509 1508 1508 1508 1507 1507 1506 1506 1505 1505 1504 1503 1502 1502 1502 1502 1502 1501 1501